WAT3078 GMTT-LMML

Flight info

Callsign WAT3078
Flight time 3h 2m
Altitude 37000
Route NARMI UN726 OJD UA411 ORSUP UZ888 DIMAO UL874 SORAB
Aircraft A306/H-SDE1FGHIRWXYZ/HB1

Departure

Time 2026-04-20 13:18
Airport Tangier Ibn Battuta Airport (GMTT)

Arrival

Time 2026-04-20 16:20
Airport Malta International Airport (LMML)
Time Latitude Longitude Altitude Speed Heading
2026-04-20 13:03 35.72521 -5.91559 66 ft 0 kts 356°
2026-04-20 13:08 35.72512 -5.91559 66 ft 3 kts 356°
2026-04-20 13:08 35.72493 -5.91557 62 ft 3 kts 356°
2026-04-20 13:08 35.72474 -5.91556 56 ft 3 kts 356°
2026-04-20 13:08 35.72456 -5.91554 59 ft 3 kts 356°
2026-04-20 13:09 35.72437 -5.91553 60 ft 2 kts 355°
2026-04-20 13:09 35.72419 -5.91545 56 ft 3 kts 297°
2026-04-20 13:09 35.72416 -5.91522 56 ft 3 kts 249°
2026-04-20 13:09 35.72419 -5.91514 56 ft 0 kts 267°
2026-04-20 13:12 35.72418 -5.91527 56 ft 6 kts 270°
2026-04-20 13:13 35.72447 -5.91630 61 ft 16 kts 308°
2026-04-20 13:13 35.72542 -5.91692 66 ft 15 kts 350°
2026-04-20 13:13 35.72648 -5.91704 62 ft 15 kts 355°
2026-04-20 13:13 35.72749 -5.91709 60 ft 14 kts 356°
2026-04-20 13:14 35.72846 -5.91719 59 ft 14 kts 353°
2026-04-20 13:14 35.72932 -5.91751 56 ft 12 kts 319°
2026-04-20 13:14 35.72956 -5.91846 66 ft 12 kts 278°
2026-04-20 13:14 35.72966 -5.91945 59 ft 12 kts 277°
2026-04-20 13:15 35.72980 -5.92100 61 ft 21 kts 274°
2026-04-20 13:15 35.72996 -5.92278 62 ft 21 kts 279°
2026-04-20 13:15 35.73013 -5.92452 60 ft 20 kts 275°
2026-04-20 13:15 35.73030 -5.92622 59 ft 20 kts 278°
2026-04-20 13:16 35.73045 -5.92788 58 ft 19 kts 277°
2026-04-20 13:16 35.73061 -5.92951 60 ft 19 kts 275°
2026-04-20 13:16 35.73075 -5.93109 58 ft 19 kts 277°
2026-04-20 13:16 35.73094 -5.93263 58 ft 17 kts 305°
2026-04-20 13:17 35.73188 -5.93318 60 ft 14 kts 358°
2026-04-20 13:17 35.73262 -5.93261 61 ft 13 kts 62°
2026-04-20 13:17 35.73266 -5.93157 59 ft 14 kts 96°
2026-04-20 13:17 35.73230 -5.92755 59 ft 86 kts 96°
2026-04-20 13:18 35.73133 -5.91732 70 ft 152 kts 97°
2026-04-20 13:18 35.72965 -5.90368 706 ft 167 kts 97°
2026-04-20 13:18 35.72809 -5.88933 1716 ft 172 kts 97°
2026-04-20 13:18 35.72675 -5.87358 2310 ft 200 kts 98°
2026-04-20 13:19 35.72517 -5.85488 2654 ft 239 kts 99°
2026-04-20 13:19 35.72341 -5.83346 3313 ft 261 kts 98°
2026-04-20 13:19 35.72147 -5.81095 4315 ft 266 kts 98°
2026-04-20 13:19 35.71757 -5.78856 5233 ft 271 kts 107°
2026-04-20 13:20 35.71161 -5.76605 6143 ft 282 kts 110°
2026-04-20 13:20 35.70517 -5.74320 7112 ft 290 kts 110°
2026-04-20 13:20 35.69853 -5.71965 8205 ft 295 kts 110°
2026-04-20 13:20 35.69182 -5.69573 9358 ft 297 kts 110°
2026-04-20 13:21 35.68501 -5.67135 10335 ft 308 kts 110°
2026-04-20 13:21 35.67776 -5.64545 10753 ft 334 kts 111°
2026-04-20 13:21 35.66990 -5.61747 11122 ft 358 kts 110°
2026-04-20 13:21 35.66158 -5.58771 11458 ft 378 kts 110°
2026-04-20 13:22 35.65285 -5.55649 11933 ft 392 kts 110°
2026-04-20 13:22 35.64388 -5.52441 12486 ft 402 kts 110°
2026-04-20 13:22 35.63493 -5.49157 13151 ft 407 kts 108°
2026-04-20 13:22 35.62690 -5.45799 13982 ft 407 kts 106°
2026-04-20 13:23 35.61968 -5.42481 15088 ft 398 kts 105°
2026-04-20 13:23 35.61278 -5.39204 15719 ft 405 kts 105°
2026-04-20 13:23 35.60563 -5.35794 16173 ft 415 kts 105°
2026-04-20 13:23 35.59841 -5.32396 17256 ft 406 kts 106°
2026-04-20 13:24 35.59061 -5.29113 18457 ft 395 kts 109°
2026-04-20 13:24 35.58234 -5.25937 19606 ft 384 kts 109°
2026-04-20 13:24 35.57398 -5.22871 20815 ft 374 kts 110°
2026-04-20 13:24 35.56567 -5.19880 21927 ft 365 kts 110°
2026-04-20 13:25 35.55759 -5.16967 23011 ft 355 kts 110°
2026-04-20 13:25 35.54977 -5.14131 23985 ft 348 kts 110°
2026-04-20 13:25 35.54206 -5.11321 24660 ft 347 kts 110°
2026-04-20 13:25 35.53449 -5.08548 25246 ft 349 kts 110°
2026-04-20 13:26 35.52663 -5.05670 25527 ft 361 kts 110°
2026-04-20 13:26 35.51849 -5.02690 25737 ft 374 kts 110°
2026-04-20 13:26 35.51007 -4.99603 25939 ft 388 kts 110°
2026-04-20 13:26 35.50137 -4.96415 26142 ft 400 kts 110°
2026-04-20 13:27 35.49239 -4.93123 26325 ft 413 kts 110°
2026-04-20 13:27 35.48314 -4.89732 26537 ft 424 kts 110°
2026-04-20 13:27 35.47368 -4.86267 26712 ft 434 kts 110°
2026-04-20 13:27 35.46397 -4.82716 26882 ft 444 kts 110°
2026-04-20 13:28 35.45401 -4.79080 27051 ft 452 kts 110°
2026-04-20 13:28 35.44390 -4.75394 27206 ft 460 kts 110°
2026-04-20 13:28 35.43374 -4.71696 27362 ft 467 kts 110°
2026-04-20 13:28 35.42329 -4.67898 27509 ft 473 kts 110°
2026-04-20 13:29 35.41268 -4.64047 27639 ft 479 kts 110°
2026-04-20 13:29 35.40197 -4.60164 27860 ft 483 kts 110°
2026-04-20 13:29 35.39119 -4.56260 28179 ft 483 kts 110°
2026-04-20 13:29 35.38041 -4.52361 28565 ft 482 kts 110°
2026-04-20 13:30 35.36967 -4.48481 28987 ft 481 kts 111°
2026-04-20 13:30 35.35892 -4.44608 29410 ft 480 kts 111°
2026-04-20 13:30 35.34819 -4.40744 29832 ft 478 kts 111°
2026-04-20 13:30 35.33746 -4.36890 30228 ft 477 kts 111°
2026-04-20 13:31 35.32676 -4.33049 30608 ft 476 kts 111°
2026-04-20 13:31 35.31607 -4.29222 30978 ft 474 kts 111°
2026-04-20 13:31 35.30538 -4.25398 31350 ft 473 kts 111°
2026-04-20 13:31 35.29474 -4.21596 31729 ft 471 kts 111°
2026-04-20 13:32 35.28411 -4.17803 32102 ft 470 kts 111°
2026-04-20 13:32 35.27349 -4.14023 32484 ft 469 kts 111°
2026-04-20 13:32 35.26292 -4.10262 32857 ft 467 kts 111°
2026-04-20 13:32 35.25248 -4.06552 33252 ft 466 kts 111°
2026-04-20 13:33 35.24193 -4.02808 33649 ft 465 kts 112°
2026-04-20 13:33 35.23138 -3.99070 34018 ft 463 kts 111°
2026-04-20 13:33 35.22087 -3.95350 34319 ft 463 kts 111°
2026-04-20 13:33 35.21390 -3.92887 34505 ft 463 kts 112°
2026-04-20 13:34 35.20338 -3.89172 34769 ft 463 kts 112°
2026-04-20 13:34 35.19281 -3.85448 35054 ft 463 kts 111°
2026-04-20 13:34 35.18263 -3.81719 35313 ft 463 kts 110°
2026-04-20 13:34 35.17309 -3.77957 35609 ft 463 kts 109°
2026-04-20 13:35 35.16388 -3.74184 35886 ft 463 kts 109°
2026-04-20 13:35 35.15479 -3.70415 36156 ft 463 kts 109°
2026-04-20 13:35 35.14567 -3.66634 36423 ft 463 kts 109°
2026-04-20 13:35 35.13651 -3.62864 36672 ft 463 kts 109°
2026-04-20 13:36 35.12727 -3.59095 36922 ft 463 kts 109°
2026-04-20 13:36 35.10871 -3.51581 36980 ft 459 kts 109°
2026-04-20 13:37 35.09021 -3.44137 36967 ft 458 kts 109°
2026-04-20 13:37 35.07164 -3.36694 36966 ft 457 kts 109°
2026-04-20 13:38 35.05318 -3.29317 36962 ft 457 kts 109°
2026-04-20 13:38 35.03456 -3.21887 36964 ft 457 kts 109°
2026-04-20 13:39 35.01591 -3.14471 36965 ft 457 kts 109°
2026-04-20 13:39 34.99722 -3.07055 36965 ft 457 kts 109°
2026-04-20 13:40 34.97950 -2.99600 36965 ft 458 kts 107°
2026-04-20 13:40 34.96492 -2.92093 36965 ft 458 kts 105°
2026-04-20 13:41 34.95078 -2.84513 36968 ft 458 kts 105°
2026-04-20 13:41 34.93631 -2.76941 36954 ft 458 kts 105°
2026-04-20 13:42 34.92157 -2.69391 36957 ft 458 kts 106°
2026-04-20 13:42 34.89930 -2.58080 36962 ft 457 kts 106°
2026-04-20 13:43 34.88452 -2.50595 36964 ft 457 kts 106°
2026-04-20 13:43 34.86964 -2.43070 36965 ft 457 kts 106°
2026-04-20 13:44 34.85471 -2.35549 36969 ft 457 kts 106°
2026-04-20 13:44 34.83974 -2.28037 36960 ft 457 kts 106°
2026-04-20 13:45 34.82466 -2.20504 36984 ft 458 kts 106°
2026-04-20 13:45 34.80955 -2.12964 36990 ft 458 kts 106°
2026-04-20 13:46 34.79459 -2.05430 36991 ft 459 kts 104°
2026-04-20 13:46 34.79146 -1.97660 36996 ft 464 kts 85°
2026-04-20 13:47 34.79825 -1.93811 36995 ft 467 kts 73°
2026-04-20 13:47 34.81093 -1.90177 36987 ft 468 kts 62°
2026-04-20 13:47 34.84685 -1.83620 36974 ft 469 kts 60°
2026-04-20 13:48 34.87773 -1.76622 36971 ft 469 kts 63°
2026-04-20 13:48 34.90692 -1.69509 36969 ft 469 kts 65°
2026-04-20 13:49 34.93533 -1.62351 36968 ft 469 kts 65°
2026-04-20 13:49 34.96357 -1.55188 36962 ft 469 kts 65°
2026-04-20 13:50 34.99189 -1.48013 36969 ft 469 kts 65°
2026-04-20 13:50 35.02017 -1.40844 36967 ft 469 kts 65°
2026-04-20 13:51 35.04828 -1.33708 36968 ft 469 kts 65°
2026-04-20 13:51 35.07648 -1.26531 36968 ft 469 kts 65°
2026-04-20 13:52 35.10469 -1.19335 36963 ft 469 kts 65°
2026-04-20 13:52 35.13281 -1.12147 36962 ft 469 kts 65°
2026-04-20 13:53 35.16086 -1.04961 36960 ft 468 kts 65°
2026-04-20 13:53 35.18884 -0.97776 36962 ft 468 kts 65°
2026-04-20 13:54 35.21660 -0.90632 36955 ft 468 kts 65°
2026-04-20 13:54 35.24450 -0.83436 36954 ft 468 kts 65°
2026-04-20 13:55 35.27239 -0.76228 36952 ft 468 kts 65°
2026-04-20 13:55 35.30021 -0.69018 36969 ft 468 kts 65°
2026-04-20 13:56 35.32792 -0.61821 36973 ft 467 kts 65°
2026-04-20 13:56 35.35564 -0.54608 36978 ft 467 kts 65°
2026-04-20 13:57 35.38313 -0.47439 36984 ft 467 kts 65°
2026-04-20 13:57 35.41070 -0.40228 36982 ft 467 kts 65°
2026-04-20 13:58 35.43825 -0.33012 36976 ft 467 kts 65°
2026-04-20 13:58 35.46579 -0.25780 36973 ft 467 kts 65°
2026-04-20 13:59 35.49326 -0.18548 36964 ft 467 kts 65°
2026-04-20 13:59 35.52068 -0.11315 36954 ft 468 kts 65°
2026-04-20 14:00 35.54815 -0.04052 36952 ft 469 kts 65°
2026-04-20 14:00 35.57559 0.03219 36959 ft 469 kts 65°
2026-04-20 14:01 35.60278 0.10439 36954 ft 468 kts 65°
2026-04-20 14:01 35.63005 0.17699 36949 ft 468 kts 65°
2026-04-20 14:02 35.65731 0.24970 36954 ft 468 kts 65°
2026-04-20 14:02 35.68451 0.32244 36946 ft 468 kts 65°
2026-04-20 14:03 35.71166 0.39523 36954 ft 468 kts 65°
2026-04-20 14:03 35.73879 0.46810 36943 ft 468 kts 65°
2026-04-20 14:04 35.76588 0.54107 36948 ft 469 kts 65°
2026-04-20 14:04 35.79282 0.61378 36938 ft 470 kts 65°
2026-04-20 14:05 35.81994 0.68715 36942 ft 470 kts 65°
2026-04-20 14:05 35.84696 0.76043 36944 ft 470 kts 65°
2026-04-20 14:06 35.87397 0.83384 36947 ft 470 kts 65°
2026-04-20 14:06 35.90095 0.90734 36947 ft 470 kts 65°
2026-04-20 14:07 35.92789 0.98090 36948 ft 470 kts 65°
2026-04-20 14:07 35.95474 1.05439 36953 ft 470 kts 65°
2026-04-20 14:08 35.98142 1.12759 36960 ft 470 kts 65°
2026-04-20 14:08 36.00822 1.20127 36968 ft 470 kts 65°
2026-04-20 14:09 36.03496 1.27497 36976 ft 470 kts 65°
2026-04-20 14:09 36.06172 1.34889 36985 ft 470 kts 65°
2026-04-20 14:10 36.08836 1.42270 36984 ft 470 kts 65°
2026-04-20 14:10 36.11302 1.49757 36978 ft 470 kts 74°
2026-04-20 14:11 36.12571 1.57645 36979 ft 471 kts 81°
2026-04-20 14:11 36.13546 1.65673 36971 ft 472 kts 82°
2026-04-20 14:12 36.14464 1.73721 36963 ft 472 kts 82°
2026-04-20 14:12 36.15390 1.81756 36958 ft 472 kts 82°
2026-04-20 14:13 36.16325 1.89789 36959 ft 472 kts 82°
2026-04-20 14:13 36.17263 1.97836 36956 ft 473 kts 82°
2026-04-20 14:14 36.18200 2.05901 36957 ft 473 kts 82°
2026-04-20 14:14 36.19131 2.13966 36966 ft 473 kts 82°
2026-04-20 14:15 36.20057 2.22034 36963 ft 473 kts 82°
2026-04-20 14:15 36.20971 2.30045 36961 ft 473 kts 82°
2026-04-20 14:16 36.21887 2.38126 36964 ft 474 kts 82°
2026-04-20 14:16 36.22798 2.46221 36968 ft 474 kts 82°
2026-04-20 14:17 36.23705 2.54324 36964 ft 475 kts 82°
2026-04-20 14:17 36.24602 2.62386 36968 ft 475 kts 82°
2026-04-20 14:18 36.25498 2.70496 36975 ft 476 kts 82°
2026-04-20 14:18 36.26388 2.78625 36971 ft 476 kts 82°
2026-04-20 14:19 36.27270 2.86749 36968 ft 476 kts 82°
2026-04-20 14:19 36.28149 2.94885 36969 ft 476 kts 82°
2026-04-20 14:20 36.29023 3.03023 36974 ft 476 kts 82°
2026-04-20 14:20 36.29746 3.09789 36962 ft 476 kts 82°
2026-04-20 14:21 36.30610 3.17936 36962 ft 476 kts 82°
2026-04-20 14:21 36.31469 3.26084 36970 ft 477 kts 82°
2026-04-20 14:22 36.32323 3.34247 36957 ft 477 kts 83°
2026-04-20 14:22 36.33170 3.42394 36966 ft 477 kts 83°
2026-04-20 14:23 36.34013 3.50550 36970 ft 477 kts 83°
2026-04-20 14:23 36.34850 3.58705 36972 ft 476 kts 83°
2026-04-20 14:24 36.35676 3.66812 36960 ft 477 kts 83°
2026-04-20 14:24 36.36503 3.74975 36962 ft 477 kts 83°
2026-04-20 14:25 36.37323 3.83137 36961 ft 477 kts 83°
2026-04-20 14:25 36.38140 3.91315 36969 ft 478 kts 83°
2026-04-20 14:26 36.38950 3.99492 36964 ft 478 kts 83°
2026-04-20 14:26 36.39757 4.07678 36960 ft 478 kts 83°
2026-04-20 14:27 36.40557 4.15871 36963 ft 478 kts 83°
2026-04-20 14:27 36.41352 4.24066 36969 ft 478 kts 83°
2026-04-20 14:28 36.42143 4.32272 36972 ft 479 kts 83°
2026-04-20 14:28 36.42924 4.40424 36968 ft 479 kts 83°
2026-04-20 14:29 36.43704 4.48643 36967 ft 479 kts 83°
2026-04-20 14:29 36.44479 4.56861 36971 ft 479 kts 83°
2026-04-20 14:30 36.45250 4.65096 36969 ft 480 kts 83°
2026-04-20 14:30 36.46015 4.73339 36978 ft 480 kts 83°
2026-04-20 14:31 36.46774 4.81577 36974 ft 480 kts 83°
2026-04-20 14:31 36.47524 4.89817 36980 ft 480 kts 83°
2026-04-20 14:32 36.48264 4.98011 36983 ft 480 kts 85°
2026-04-20 14:32 36.48399 5.06313 36985 ft 480 kts 91°
2026-04-20 14:33 36.48332 5.14618 36991 ft 480 kts 91°
2026-04-20 14:33 36.48221 5.22927 37003 ft 480 kts 91°
2026-04-20 14:34 36.48114 5.31221 37007 ft 480 kts 91°
2026-04-20 14:34 36.48007 5.39530 37008 ft 481 kts 92°
2026-04-20 14:35 36.47898 5.47788 37002 ft 481 kts 91°
2026-04-20 14:35 36.47788 5.56094 36992 ft 480 kts 91°
2026-04-20 14:36 36.47670 5.64405 36982 ft 480 kts 92°
2026-04-20 14:36 36.47545 5.72703 36984 ft 481 kts 92°
2026-04-20 14:37 36.47413 5.81020 36978 ft 481 kts 92°
2026-04-20 14:37 36.47276 5.89283 36979 ft 481 kts 92°
2026-04-20 14:38 36.47132 5.97586 36974 ft 481 kts 92°
2026-04-20 14:38 36.46981 6.05890 36973 ft 481 kts 92°
2026-04-20 14:39 36.46827 6.14191 36970 ft 481 kts 92°
2026-04-20 14:39 36.46666 6.22508 36968 ft 481 kts 92°
2026-04-20 14:40 36.46497 6.30825 36971 ft 482 kts 92°
2026-04-20 14:40 36.46323 6.39144 36969 ft 482 kts 92°
2026-04-20 14:41 36.46143 6.47481 36967 ft 482 kts 92°
2026-04-20 14:41 36.45960 6.55755 36969 ft 482 kts 92°
2026-04-20 14:42 36.45768 6.64095 37023 ft 482 kts 92°
2026-04-20 14:42 36.45572 6.72424 37021 ft 482 kts 92°
2026-04-20 14:43 36.45369 6.80754 37009 ft 482 kts 92°
2026-04-20 14:43 36.45160 6.89090 36995 ft 482 kts 92°
2026-04-20 14:44 36.44945 6.97425 36976 ft 483 kts 92°
2026-04-20 14:44 36.44724 7.05760 36968 ft 483 kts 92°
2026-04-20 14:45 36.44498 7.14100 36972 ft 483 kts 92°
2026-04-20 14:45 36.44268 7.22389 36972 ft 483 kts 92°
2026-04-20 14:46 36.44030 7.30716 36971 ft 483 kts 92°
2026-04-20 14:46 36.43787 7.39051 36969 ft 483 kts 92°
2026-04-20 14:47 36.43538 7.47397 36968 ft 483 kts 92°
2026-04-20 14:48 36.43152 7.59907 36970 ft 483 kts 93°
2026-04-20 14:48 36.42889 7.68242 36974 ft 483 kts 93°
2026-04-20 14:49 36.42621 7.76535 36975 ft 483 kts 93°
2026-04-20 14:49 36.42345 7.84869 36975 ft 483 kts 93°
2026-04-20 14:50 36.42063 7.93208 36979 ft 483 kts 93°
2026-04-20 14:50 36.41777 8.01536 36979 ft 483 kts 93°
2026-04-20 14:51 36.41485 8.09865 36981 ft 483 kts 93°
2026-04-20 14:51 36.41186 8.18199 36981 ft 483 kts 93°
2026-04-20 14:52 36.40881 8.26530 36978 ft 483 kts 93°
2026-04-20 14:52 36.40555 8.34870 36979 ft 483 kts 95°
2026-04-20 14:53 36.39507 8.43103 36979 ft 483 kts 101°
2026-04-20 14:53 36.38242 8.51248 36977 ft 484 kts 102°
2026-04-20 14:54 36.36923 8.59440 36979 ft 484 kts 102°
2026-04-20 14:54 36.35607 8.67628 36973 ft 483 kts 102°
2026-04-20 14:55 36.34295 8.75811 36976 ft 484 kts 102°
2026-04-20 14:55 36.32980 8.84002 36974 ft 485 kts 102°
2026-04-20 14:56 36.31656 8.92206 36977 ft 485 kts 102°
2026-04-20 14:56 36.30327 9.00411 36979 ft 485 kts 102°
2026-04-20 14:57 36.28994 9.08600 36976 ft 485 kts 102°
2026-04-20 14:57 36.27660 9.16747 36977 ft 486 kts 102°
2026-04-20 14:58 36.26311 9.24961 36979 ft 486 kts 102°
2026-04-20 14:58 36.24982 9.33170 36980 ft 486 kts 101°
2026-04-20 14:59 36.23943 9.41447 36976 ft 486 kts 98°
2026-04-20 14:59 36.23016 9.49759 36977 ft 487 kts 98°
2026-04-20 15:00 36.22067 9.58062 36983 ft 487 kts 98°
2026-04-20 15:00 36.21085 9.66368 36977 ft 487 kts 99°
2026-04-20 15:01 36.20091 9.74630 36979 ft 487 kts 99°
2026-04-20 15:01 36.19086 9.82936 36976 ft 488 kts 99°
2026-04-20 15:02 36.18075 9.91247 36978 ft 489 kts 99°
2026-04-20 15:02 36.17057 9.99567 36988 ft 489 kts 99°
2026-04-20 15:03 36.16031 10.07902 36988 ft 489 kts 99°
2026-04-20 15:03 36.14642 10.16125 36994 ft 488 kts 107°
2026-04-20 15:04 36.12619 10.24142 36990 ft 488 kts 109°
2026-04-20 15:04 36.12237 10.25582 36990 ft 488 kts 109°
2026-04-20 15:44 36.12040 10.26321 36984 ft 488 kts 109°
2026-04-20 15:45 36.09892 10.34290 36994 ft 489 kts 110°
2026-04-20 15:45 36.07865 10.42315 36991 ft 490 kts 102°
2026-04-20 15:46 36.07165 10.50694 36992 ft 490 kts 93°
2026-04-20 15:46 36.06895 10.59106 36997 ft 490 kts 91°
2026-04-20 15:47 36.06695 10.67552 36992 ft 491 kts 91°
2026-04-20 15:47 36.06474 10.75943 36995 ft 491 kts 92°
2026-04-20 15:48 36.06225 10.84398 36997 ft 491 kts 92°
2026-04-20 15:48 36.05964 10.92836 37004 ft 491 kts 92°
2026-04-20 15:49 36.05697 11.01267 37005 ft 491 kts 92°
2026-04-20 15:49 36.05424 11.09724 37004 ft 491 kts 92°
2026-04-20 15:50 36.05147 11.18122 37004 ft 491 kts 92°
2026-04-20 15:50 36.04864 11.26566 37004 ft 491 kts 92°
2026-04-20 15:51 36.04401 11.34979 37008 ft 492 kts 99°
2026-04-20 15:51 36.03368 11.43346 37007 ft 492 kts 99°
2026-04-20 15:52 36.02291 11.51703 37015 ft 492 kts 99°
2026-04-20 15:52 36.01201 11.60054 37015 ft 492 kts 99°
2026-04-20 15:53 35.99738 11.71169 37019 ft 493 kts 99°
2026-04-20 15:53 35.98631 11.79526 37020 ft 493 kts 99°
2026-04-20 15:54 35.97516 11.87890 37021 ft 493 kts 99°
2026-04-20 15:54 35.96395 11.96259 37026 ft 493 kts 99°
2026-04-20 15:55 35.95277 12.04557 37037 ft 493 kts 99°
2026-04-20 15:55 35.94143 12.12928 37031 ft 494 kts 99°
2026-04-20 15:56 35.93004 12.21292 37034 ft 494 kts 100°
2026-04-20 15:56 35.91859 12.29660 37034 ft 494 kts 100°
2026-04-20 15:57 35.90707 12.38026 37040 ft 494 kts 100°
2026-04-20 15:57 35.89551 12.46381 37040 ft 495 kts 100°
2026-04-20 15:58 35.88383 12.54778 37042 ft 496 kts 100°
2026-04-20 15:58 35.87210 12.63167 37045 ft 498 kts 100°
2026-04-20 15:59 35.86033 12.71541 37045 ft 499 kts 100°
2026-04-20 15:59 35.84842 12.79970 37049 ft 499 kts 100°
2026-04-20 16:00 35.83644 12.88405 37051 ft 500 kts 100°
2026-04-20 16:00 35.82437 12.96856 37042 ft 496 kts 100°
2026-04-20 16:01 35.81839 13.01025 36459 ft 493 kts 100°
2026-04-20 16:01 35.81239 13.05198 35619 ft 494 kts 100°
2026-04-20 16:01 35.80636 13.09384 34777 ft 495 kts 100°
2026-04-20 16:01 35.80033 13.13557 33917 ft 496 kts 100°
2026-04-20 16:02 35.79427 13.17742 32907 ft 496 kts 100°
2026-04-20 16:02 35.78827 13.21877 31909 ft 496 kts 100°
2026-04-20 16:02 35.78218 13.26057 30908 ft 496 kts 100°
2026-04-20 16:02 35.77609 13.30236 29843 ft 496 kts 100°
2026-04-20 16:03 35.76997 13.34413 28616 ft 495 kts 100°
2026-04-20 16:03 35.76386 13.38579 27572 ft 491 kts 100°
2026-04-20 16:03 35.75782 13.42686 26739 ft 483 kts 100°
2026-04-20 16:03 35.75186 13.46729 25825 ft 477 kts 100°
2026-04-20 16:04 35.74598 13.50710 25050 ft 469 kts 100°
2026-04-20 16:04 35.74017 13.54634 24207 ft 463 kts 100°
2026-04-20 16:04 35.73443 13.58496 23423 ft 455 kts 100°
2026-04-20 16:04 35.72875 13.62314 22454 ft 451 kts 100°
2026-04-20 16:05 35.72315 13.66070 21587 ft 443 kts 100°
2026-04-20 16:05 35.71760 13.69783 20741 ft 438 kts 100°
2026-04-20 16:05 35.71212 13.73444 19873 ft 433 kts 100°
2026-04-20 16:05 35.70669 13.77066 19126 ft 427 kts 100°
2026-04-20 16:06 35.70131 13.80640 18313 ft 423 kts 100°
2026-04-20 16:06 35.69599 13.84170 17522 ft 417 kts 100°
2026-04-20 16:06 35.69079 13.87617 16729 ft 411 kts 100°
2026-04-20 16:06 35.68558 13.91060 15901 ft 406 kts 100°
2026-04-20 16:07 35.68042 13.94461 15074 ft 403 kts 100°
2026-04-20 16:07 35.67531 13.97823 14317 ft 398 kts 101°
2026-04-20 16:07 35.67024 14.01154 13489 ft 394 kts 101°
2026-04-20 16:07 35.66523 14.04438 12690 ft 388 kts 101°
2026-04-20 16:08 35.66026 14.07689 11847 ft 385 kts 101°
2026-04-20 16:08 35.65535 14.10899 11092 ft 379 kts 101°
2026-04-20 16:08 35.65052 14.14043 10609 ft 367 kts 101°
2026-04-20 16:08 35.64592 14.17038 10162 ft 355 kts 101°
2026-04-20 16:09 35.64143 14.19958 9909 ft 339 kts 101°
2026-04-20 16:09 35.63714 14.22739 9708 ft 323 kts 100°
2026-04-20 16:09 35.63305 14.25384 9480 ft 309 kts 100°
2026-04-20 16:09 35.62907 14.27958 9055 ft 305 kts 100°
2026-04-20 16:10 35.62511 14.30514 8556 ft 303 kts 100°
2026-04-20 16:10 35.62117 14.33052 8072 ft 301 kts 100°
2026-04-20 16:10 35.61725 14.35576 7595 ft 300 kts 99°
2026-04-20 16:10 35.61337 14.38074 7146 ft 297 kts 99°
2026-04-20 16:11 35.60949 14.40566 6682 ft 295 kts 99°
2026-04-20 16:11 35.60564 14.43034 6202 ft 294 kts 99°
2026-04-20 16:11 35.60180 14.45490 5723 ft 292 kts 99°
2026-04-20 16:11 35.59797 14.47945 5245 ft 291 kts 99°
2026-04-20 16:12 35.59417 14.50369 4747 ft 284 kts 99°
2026-04-20 16:12 35.59051 14.52699 4344 ft 271 kts 99°
2026-04-20 16:12 35.58701 14.54926 4061 ft 260 kts 100°
2026-04-20 16:12 35.58429 14.57108 3991 ft 258 kts 90°
2026-04-20 16:13 35.58800 14.59224 3996 ft 253 kts 58°
2026-04-20 16:13 35.59877 14.60892 4015 ft 248 kts 43°
2026-04-20 16:13 35.61102 14.62374 4059 ft 248 kts 41°
2026-04-20 16:13 35.62317 14.63819 3996 ft 238 kts 41°
2026-04-20 16:14 35.63449 14.65178 3998 ft 220 kts 41°
2026-04-20 16:14 35.64531 14.66482 3689 ft 217 kts 41°
2026-04-20 16:14 35.65606 14.67782 3315 ft 216 kts 42°
2026-04-20 16:14 35.66829 14.68797 3004 ft 210 kts
2026-04-20 16:15 35.68227 14.68606 3032 ft 203 kts 338°
2026-04-20 16:15 35.69484 14.67829 2798 ft 202 kts 322°
2026-04-20 16:15 35.70482 14.66712 2545 ft 187 kts 312°
2026-04-20 16:15 35.71370 14.65581 2164 ft 182 kts 312°
2026-04-20 16:16 35.72261 14.64467 2018 ft 183 kts 313°
2026-04-20 16:16 35.73153 14.63358 2001 ft 182 kts 313°
2026-04-20 16:16 35.74033 14.62268 2005 ft 174 kts 313°
2026-04-20 16:16 35.74855 14.61253 2029 ft 163 kts 313°
2026-04-20 16:17 35.75645 14.60276 1993 ft 161 kts 313°
2026-04-20 16:17 35.76433 14.59298 1984 ft 160 kts 313°
2026-04-20 16:17 35.77216 14.58327 1973 ft 160 kts 313°
2026-04-20 16:17 35.77985 14.57372 1786 ft 155 kts 313°
2026-04-20 16:18 35.78709 14.56474 1598 ft 140 kts 312°
2026-04-20 16:18 35.79361 14.55644 1433 ft 133 kts 310°
2026-04-20 16:18 35.79992 14.54807 1254 ft 134 kts 310°
2026-04-20 16:18 35.80643 14.53977 1074 ft 135 kts 311°
2026-04-20 16:19 35.81319 14.53157 926 ft 137 kts 313°
2026-04-20 16:19 35.82010 14.52331 687 ft 139 kts 313°
2026-04-20 16:19 35.82693 14.51498 481 ft 137 kts 312°
2026-04-20 16:19 35.83362 14.50693 302 ft 129 kts 311°
2026-04-20 16:20 35.83951 14.49971 258 ft 102 kts 315°
2026-04-20 16:20 35.84347 14.49495 264 ft 64 kts 314°
2026-04-20 16:20 35.84606 14.49163 266 ft 44 kts 315°
2026-04-20 16:20 35.84746 14.49028 266 ft 12 kts 336°
2026-04-20 16:21 35.84820 14.48992 267 ft 11 kts 340°
2026-04-20 16:21 35.84874 14.48976 267 ft 0 kts
2026-04-20 16:21 35.84876 14.48977 267 ft 0 kts
2026-04-20 16:21 35.84879 14.48977 267 ft 1 kts
2026-04-20 16:22 35.84907 14.48988 267 ft 8 kts 26°
2026-04-20 16:22 35.84916 14.49074 267 ft 11 kts 119°
2026-04-20 16:22 35.84912 14.49162 267 ft 11 kts 63°
2026-04-20 16:22 35.84960 14.49217 266 ft 9 kts 37°
2026-04-20 16:23 35.84991 14.49278 266 ft 8 kts 97°
2026-04-20 16:23 35.84962 14.49309 266 ft 0 kts 145°